| time (UTC) | temp C | wind direction | speed KPH | gust KPH | rain 1hr cm | rain 24hr cm | rain mn cm | humidity % | barometer mb |
| 20260510143955 | 13 | 21 | 30.6 | 53.1 | 0.00 | 0.00 | 0.00 | 74 | 1015.7 |
| 20260510143451 | 13 | 355 | 35.4 | 62.8 | 0.00 | 0.00 | 0.00 | 74 | 1015.7 |
| 20260510142948 | 13 | 11 | 37.0 | 54.7 | 0.00 | 0.00 | 0.00 | 74 | 1015.6 |
| 20260510142444 | 13 | 5 | 35.4 | 66.0 | 0.00 | 0.00 | 0.00 | 75 | 1015.6 |
| 20260510141935 | 13 | 20 | 35.4 | 53.1 | 0.00 | 0.00 | 0.00 | 75 | 1015.4 |
| 20260510141432 | 13 | 20 | 37.0 | 48.3 | 0.00 | 0.00 | 0.00 | 75 | 1015.5 |
| 20260510140930 | 13 | 8 | 38.6 | 56.3 | 0.00 | 0.00 | 0.00 | 76 | 1015.5 |
| 20260510140426 | 13 | 8 | 51.5 | 54.7 | 0.00 | 0.00 | 0.00 | 76 | 1015.5 |
| 20260510135924 | 13 | 359 | 35.4 | 56.3 | 0.00 | 0.00 | 0.00 | 75 | 1015.6 |
| 20260510135421 | 13 | 355 | 40.2 | 66.0 | 0.00 | 0.00 | 0.00 | 75 | 1015.6 |
| 20260510134918 | 13 | 9 | 38.6 | 51.5 | 0.00 | 0.00 | 0.00 | 75 | 1015.5 |
| 20260510134415 | 13 | 352 | 27.4 | 53.1 | 0.00 | 0.00 | 0.00 | 76 | 1015.1 |
| 20260510133911 | 13 | 9 | 38.6 | 61.2 | 0.00 | 0.00 | 0.00 | 76 | 1015.0 |
| 20260510133408 | 13 | 10 | 41.8 | 59.5 | 0.00 | 0.00 | 0.00 | 75 | 1014.7 |
| 20260510132903 | 13 | 2 | 38.6 | 54.7 | 0.00 | 0.00 | 0.00 | 75 | 1014.3 |
| 20260510132401 | 13 | 6 | 35.4 | 57.9 | 0.00 | 0.00 | 0.00 | 74 | 1014.7 |
| 20260510131858 | 13 | 14 | 38.6 | 59.5 | 0.00 | 0.00 | 0.00 | 74 | 1014.2 |
| 20260510131355 | 13 | 339 | 40.2 | 51.5 | 0.00 | 0.00 | 0.00 | 73 | 1014.2 |
| 20260510130852 | 13 | 9 | 37.0 | 48.3 | 0.00 | 0.00 | 0.00 | 73 | 1014.0 |
| 20260510130349 | 13 | 5 | 41.8 | 48.3 | 0.00 | 0.00 | 0.00 | 72 | 1014.0 |
| 20260510125846 | 14 | 11 | 29.0 | 48.3 | 0.00 | 0.00 | 0.00 | 73 | 1014.0 |
| 20260510125342 | 13 | 18 | 29.0 | 45.1 | 0.00 | 0.00 | 0.00 | 73 | 1013.6 |
| 20260510124839 | 13 | 15 | 40.2 | 51.5 | 0.00 | 0.00 | 0.00 | 73 | 1013.4 |
| 20260510124335 | 13 | 11 | 33.8 | 41.8 | 0.00 | 0.00 | 0.00 | 72 | 1013.6 |
| 20260510123831 | 13 | 4 | 35.4 | 54.7 | 0.00 | 0.00 | 0.00 | 72 | 1013.2 |
| 20260510123327 | 13 | 12 | 38.6 | 53.1 | 0.00 | 0.00 | 0.00 | 72 | 1013.1 |
| 20260510122823 | 13 | 26 | 35.4 | 51.5 | 0.00 | 0.00 | 0.00 | 71 | 1013.0 |
| 20260510122320 | 13 | 23 | 30.6 | 37.0 | 0.00 | 0.00 | 0.00 | 71 | 1013.1 |
| 20260510121816 | 13 | 20 | 30.6 | 49.9 | 0.00 | 0.00 | 0.00 | 70 | 1013.1 |
| 20260510121314 | 13 | 4 | 22.5 | 38.6 | 0.00 | 0.00 | 0.00 | 69 | 1013.1 |
| 20260510120811 | 13 | 18 | 27.4 | 51.5 | 0.00 | 0.00 | 0.00 | 70 | 1012.8 |
| 20260510120307 | 13 | 15 | 29.0 | 41.8 | 0.00 | 0.00 | 0.00 | 69 | 1012.5 |
| 20260510115803 | 13 | 15 | 30.6 | 46.7 | 0.00 | 0.00 | 0.00 | 69 | 1012.5 |
| 20260510115305 | 13 | 30 | 25.7 | 45.1 | 0.00 | 0.00 | 0.00 | 69 | 1012.1 |
| 20260510114756 | 13 | 17 | 25.7 | 41.8 | 0.00 | 0.00 | 0.00 | 68 | 1012.0 |
| 20260510114253 | 13 | 20 | 29.0 | 46.7 | 0.00 | 0.00 | 0.00 | 67 | 1011.8 |
| 20260510113748 | 14 | 9 | 29.0 | 37.0 | 0.00 | 0.00 | 0.00 | 67 | 1011.6 |
| 20260510113245 | 14 | 47 | 24.1 | 33.8 | 0.00 | 0.00 | 0.00 | 66 | 1011.6 |
| 20260510112741 | 14 | 43 | 29.0 | 37.0 | 0.00 | 0.00 | 0.00 | 65 | 1011.8 |
| 20260510112238 | 14 | 27 | 14.5 | 30.6 | 0.00 | 0.00 | 0.00 | 64 | 1011.7 |
| 20260510111734 | 14 | 27 | 19.3 | 35.4 | 0.00 | 0.00 | 0.00 | 63 | 1011.3 |
| 20260510111232 | 15 | 36 | 25.7 | 40.2 | 0.00 | 0.00 | 0.00 | 61 | 1010.9 |
| 20260510110731 | 15 | 10 | 27.4 | 41.8 | 0.00 | 0.00 | 0.00 | 61 | 1010.8 |
| 20260510110229 | 15 | 2 | 27.4 | 41.8 | 0.00 | 0.00 | 0.00 | 67 | 1010.5 |
| 20260510105728 | 15 | 6 | 25.7 | 41.8 | 0.00 | 0.00 | 0.00 | 78 | 1010.5 |
| 20260510105224 | 16 | 30 | 25.7 | 37.0 | 0.00 | 0.00 | 0.00 | 79 | 1010.5 |
| 20260510104720 | 16 | 33 | 29.0 | 41.8 | 0.00 | 0.00 | 0.00 | 79 | 1010.5 |
| 20260510104218 | 16 | 33 | 27.4 | 38.6 | 0.00 | 0.00 | 0.00 | 79 | 1010.4 |
| 20260510103714 | 16 | 27 | 37.0 | 45.1 | 0.00 | 0.00 | 0.00 | 79 | 1010.3 |
| 20260510103211 | 16 | 28 | 20.9 | 41.8 | 0.00 | 0.00 | 0.00 | 80 | 1010.5 |
| 20260510102711 | 16 | 15 | 32.2 | 45.1 | 0.00 | 0.00 | 0.00 | 80 | 1010.3 |
| 20260510102207 | 16 | 10 | 27.4 | 35.4 | 0.00 | 0.00 | 0.00 | 80 | 1010.1 |
| 20260510101705 | 16 | 26 | 19.3 | 35.4 | 0.00 | 0.00 | 0.00 | 80 | 1010.3 |
| 20260510101203 | 16 | 32 | 19.3 | 38.6 | 0.00 | 0.00 | 0.00 | 79 | 1009.9 |
| 20260510100658 | 16 | 14 | 17.7 | 29.0 | 0.00 | 0.00 | 0.00 | 78 | 1010.1 |
| 20260510100157 | 16 | 41 | 16.1 | 33.8 | 0.00 | 0.00 | 0.00 | 77 | 1009.9 |
| 20260510095652 | 16 | 7 | 11.3 | 25.7 | 0.00 | 0.00 | 0.00 | 76 | 1009.4 |
| 20260510095147 | 16 | 31 | 14.5 | 24.1 | 0.00 | 0.00 | 0.00 | 75 | 1009.1 |
| 20260510094646 | 16 | 23 | 19.3 | 27.4 | 0.00 | 0.00 | 0.00 | 74 | 1009.0 |
| 20260510094142 | 16 | 44 | 16.1 | 27.4 | 0.00 | 0.00 | 0.00 | 72 | 1009.1 |
| 20260510093638 | 16 | 21 | 19.3 | 22.5 | 0.00 | 0.00 | 0.00 | 71 | 1009.0 |
| 20260510093135 | 16 | 50 | 9.7 | 17.7 | 0.00 | 0.00 | 0.00 | 70 | 1009.2 |
| 20260510092632 | 16 | 32 | 11.3 | 25.7 | 0.00 | 0.00 | 0.00 | 69 | 1009.1 |
| 20260510092127 | 17 | 50 | 14.5 | 24.1 | 0.00 | 0.00 | 0.00 | 67 | 1009.1 |
| 20260510091623 | 17 | 41 | 14.5 | 30.6 | 0.00 | 0.00 | 0.00 | 65 | 1009.1 |
| 20260510091120 | 17 | 54 | 20.9 | 35.4 | 0.00 | 0.00 | 0.00 | 64 | 1008.7 |
| 20260510090617 | 17 | 55 | 25.7 | 33.8 | 0.00 | 0.00 | 0.00 | 62 | 1008.8 |
| 20260510090113 | 17 | 61 | 24.1 | 35.4 | 0.00 | 0.00 | 0.00 | 59 | 1009.0 |
| 20260510085608 | 17 | 60 | 29.0 | 30.6 | 0.00 | 0.00 | 0.00 | 56 | 1008.7 |
| 20260510085104 | 17 | 45 | 20.9 | 29.0 | 0.00 | 0.00 | 0.00 | 54 | 1008.7 |
| 20260510084601 | 17 | 63 | 16.1 | 24.1 | 0.00 | 0.00 | 0.00 | 51 | 1008.7 |
| 20260510084057 | 18 | 56 | 24.1 | 32.2 | 0.00 | 0.00 | 0.00 | 49 | 1008.4 |
| 20260510083554 | 18 | 48 | 20.9 | 33.8 | 0.00 | 0.00 | 0.00 | 47 | 1008.6 |
| 20260510083050 | 18 | 57 | 29.0 | 37.0 | 0.00 | 0.00 | 0.00 | 44 | 1008.0 |
| 20260510082547 | 18 | 62 | 32.2 | 37.0 | 0.00 | 0.00 | 0.00 | 41 | 1008.1 |
| 20260510082042 | 19 | 49 | 27.4 | 35.4 | 0.00 | 0.00 | 0.00 | 39 | 1008.3 |
| 20260510081538 | 19 | 57 | 30.6 | 37.0 | 0.00 | 0.00 | 0.00 | 37 | 1008.4 |
| 20260510081033 | 19 | 49 | 24.1 | 43.5 | 0.00 | 0.00 | 0.00 | 36 | 1008.4 |
| 20260510080533 | 19 | 56 | 32.2 | 38.6 | 0.00 | 0.00 | 0.00 | 34 | 1008.4 |
| 20260510080030 | 19 | 54 | 29.0 | 30.6 | 0.00 | 0.00 | 0.00 | 33 | 1008.1 |
| 20260510075527 | 19 | 59 | 17.7 | 29.0 | 0.00 | 0.00 | 0.00 | 31 | 1008.2 |
| 20260510075024 | 20 | 26 | 19.3 | 29.0 | 0.00 | 0.00 | 0.00 | 31 | 1008.3 |
| 20260510074522 | 20 | 45 | 16.1 | 30.6 | 0.00 | 0.00 | 0.00 | 30 | 1008.3 |
| 20260510074016 | 20 | 57 | 25.7 | 32.2 | 0.00 | 0.00 | 0.00 | 29 | 1008.2 |
| 20260510073513 | 20 | 62 | 25.7 | 32.2 | 0.00 | 0.00 | 0.00 | 28 | 1008.3 |
| 20260510073010 | 21 | 54 | 20.9 | 27.4 | 0.00 | 0.00 | 0.00 | 27 | 1008.4 |
| 20260510072507 | 21 | 59 | 24.1 | 32.2 | 0.00 | 0.00 | 0.00 | 26 | 1008.8 |
| 20260510072002 | 22 | 61 | 29.0 | 38.6 | 0.00 | 0.00 | 0.00 | 25 | 1008.7 |
| 20260510071458 | 21 | 57 | 17.7 | 40.2 | 0.00 | 0.00 | 0.00 | 25 | 1008.6 |
| 20260510070957 | 20 | 58 | 16.1 | 22.5 | 0.00 | 0.00 | 0.00 | 25 | 1008.9 |
| 20260510070454 | 20 | 72 | 14.5 | 20.9 | 0.00 | 0.00 | 0.00 | 25 | 1008.7 |
| 20260510065949 | 19 | 62 | 30.6 | 30.6 | 0.00 | 0.00 | 0.00 | 25 | 1008.6 |
| 20260510065447 | 20 | 61 | 25.7 | 30.6 | 0.00 | 0.00 | 0.00 | 25 | 1008.4 |
| 20260510064942 | 20 | 60 | 14.5 | 19.3 | 0.00 | 0.00 | 0.00 | 25 | 1008.2 |
| 20260510064440 | 21 | 54 | 12.9 | 17.7 | 0.00 | 0.00 | 0.00 | 24 | 1008.2 |
| 20260510063936 | 21 | 61 | 17.7 | 19.3 | 0.00 | 0.00 | 0.00 | 24 | 1007.9 |
| 20260510063432 | 20 | 2 | 16.1 | 20.9 | 0.00 | 0.00 | 0.00 | 24 | 1008.0 |
| 20260510062931 | 20 | 10 | 17.7 | 20.9 | 0.00 | 0.00 | 0.00 | 24 | 1008.3 |
| 20260510062431 | 20 | 329 | 27.4 | 33.8 | 0.00 | 0.00 | 0.00 | 24 | 1008.1 |
| 20260510061926 | 23 | 60 | 4.8 | 6.4 | 0.00 | 0.00 | 0.00 | 21 | 1007.8 |
| 20260510061423 | 22 | 61 | 3.2 | 3.2 | 0.00 | 0.00 | 0.00 | 22 | 1007.8 |
| 20260510060919 | 22 | 63 | 6.4 | 6.4 | 0.00 | 0.00 | 0.00 | 22 | 1007.8 |
| 20260510060416 | 22 | 81 | 4.8 | 11.3 | 0.00 | 0.00 | 0.00 | 21 | 1007.5 |
| 20260510055913 | 23 | 127 | 8.0 | 8.0 | 0.00 | 0.00 | 0.00 | 21 | 1007.3 |
| 20260510055408 | 23 | 126 | 12.9 | 17.7 | 0.00 | 0.00 | 0.00 | 20 | 1007.3 |
| 20260510054907 | 23 | 160 | 8.0 | 9.7 | 0.00 | 0.00 | 0.00 | 20 | 1007.3 |
| 20260510054402 | 23 | 240 | 6.4 | 11.3 | 0.00 | 0.00 | 0.00 | 20 | 1007.5 |
| 20260510053857 | 22 | 153 | 8.0 | 16.1 | 0.00 | 0.00 | 0.00 | 22 | 1007.1 |
| 20260510053353 | 23 | 299 | 6.4 | 6.4 | 0.00 | 0.00 | 0.00 | 21 | 1007.4 |
| 20260510052849 | 23 | 45 | 3.2 | 4.8 | 0.00 | 0.00 | 0.00 | 20 | 1007.3 |
| 20260510052345 | 23 | 96 | 3.2 | 4.8 | 0.00 | 0.00 | 0.00 | 21 | 1007.4 |
| 20260510051841 | 24 | 257 | 4.8 | 8.0 | 0.00 | 0.00 | 0.00 | 20 | 1007.4 |
| 20260510051338 | 25 | 1 | 4.8 | 8.0 | 0.00 | 0.00 | 0.00 | 19 | 1007.5 |
| 20260510050835 | 25 | 203 | 8.0 | 20.9 | 0.00 | 0.00 | 0.00 | 20 | 1007.5 |
| 20260510050332 | 26 | 70 | 20.9 | 22.5 | 0.00 | 0.00 | 0.00 | 17 | 1007.4 |
| 20260510045829 | 25 | 70 | 17.7 | 20.9 | 0.00 | 0.00 | 0.00 | 19 | 1007.5 |
| 20260510045326 | 24 | 78 | 12.9 | 17.7 | 0.00 | 0.00 | 0.00 | 20 | 1007.7 |
| 20260510044823 | 24 | 67 | 11.3 | 14.5 | 0.00 | 0.00 | 0.00 | 20 | 1007.7 |
| 20260510044320 | 24 | 80 | 11.3 | 14.5 | 0.00 | 0.00 | 0.00 | 19 | 1007.8 |
| 20260510043816 | 23 | 74 | 9.7 | 11.3 | 0.00 | 0.00 | 0.00 | 20 | 1007.7 |
| 20260510043312 | 23 | 12 | 9.7 | 14.5 | 0.00 | 0.00 | 0.00 | 20 | 1007.9 |
| 20260510042810 | 23 | 47 | 14.5 | 17.7 | 0.00 | 0.00 | 0.00 | 21 | 1007.9 |
| 20260510042307 | 22 | 10 | 20.9 | 20.9 | 0.00 | 0.00 | 0.00 | 21 | 1007.8 |
| 20260510041802 | 22 | 17 | 9.7 | 9.7 | 0.00 | 0.00 | 0.00 | 21 | 1007.4 |
| 20260510041259 | 22 | 26 | 6.4 | 8.0 | 0.00 | 0.00 | 0.00 | 21 | 1007.3 |
| 20260510040757 | 22 | 9 | 4.8 | 4.8 | 0.00 | 0.00 | 0.00 | 22 | 1007.3 |
| 20260510040248 | 22 | 294 | 0.0 | 1.6 | 0.00 | 0.00 | 0.00 | 21 | 1007.3 |
| 20260510035743 | 22 | 302 | 3.2 | 3.2 | 0.00 | 0.00 | 0.00 | 22 | 1007.2 |
| 20260510035239 | 22 | 305 | 0.0 | 4.8 | 0.00 | 0.00 | 0.00 | 21 | 1007.0 |
| 20260510034735 | 22 | 295 | 3.2 | 4.8 | 0.00 | 0.00 | 0.00 | 21 | 1006.7 |
| 20260510034233 | 22 | 195 | 0.0 | 0.0 | 0.00 | 0.00 | 0.00 | 21 | 1007.0 |
| 20260510033729 | 22 | 179 | 3.2 | 6.4 | 0.00 | 0.00 | 0.00 | 21 | 1007.1 |
| 20260510033227 | 22 | 208 | 6.4 | 8.0 | 0.00 | 0.00 | 0.00 | 21 | 1007.0 |
| 20260510032723 | 22 | 225 | 8.0 | 8.0 | 0.00 | 0.00 | 0.00 | 22 | 1006.9 |
| 20260510032219 | 22 | 208 | 6.4 | 8.0 | 0.00 | 0.00 | 0.00 | 22 | 1006.7 |
| 20260510031714 | 22 | 207 | 8.0 | 9.7 | 0.00 | 0.00 | 0.00 | 21 | 1006.5 |
| 20260510031210 | 23 | 223 | 9.7 | 11.3 | 0.00 | 0.00 | 0.00 | 20 | 1006.7 |
| 20260510030709 | 23 | 226 | 6.4 | 8.0 | 0.00 | 0.00 | 0.00 | 20 | 1006.2 |
| 20260510030208 | 24 | 243 | 6.4 | 6.4 | 0.00 | 0.00 | 0.00 | 20 | 1006.4 |
| 20260510025705 | 24 | 253 | 3.2 | 4.8 | 0.00 | 0.00 | 0.00 | 20 | 1006.3 |
| 20260510025202 | 25 | 292 | 3.2 | 4.8 | 0.00 | 0.00 | 0.00 | 19 | 1006.5 |
| 20260510024659 | 25 | 283 | 4.8 | 6.4 | 0.00 | 0.00 | 0.00 | 18 | 1006.3 |
| 20260510024155 | 25 | 257 | 4.8 | 6.4 | 0.00 | 0.00 | 0.00 | 18 | 1006.3 |
| 20260510023651 | 25 | 215 | 6.4 | 6.4 | 0.00 | 0.00 | 0.00 | 18 | 1006.1 |
| 20260510023148 | 25 | 200 | 8.0 | 12.9 | 0.00 | 0.00 | 0.00 | 17 | 1006.2 |
| 20260510022643 | 26 | 210 | 16.1 | 20.9 | 0.00 | 0.00 | 0.00 | 17 | 1006.2 |
| 20260510022139 | 25 | 204 | 12.9 | 14.5 | 0.00 | 0.00 | 0.00 | 17 | 1005.8 |
| 20260510021634 | 25 | 204 | 11.3 | 14.5 | 0.00 | 0.00 | 0.00 | 17 | 1005.6 |
| 20260510021132 | 25 | 216 | 9.7 | 12.9 | 0.00 | 0.00 | 0.00 | 17 | 1005.8 |
| 20260510020626 | 25 | 249 | 12.9 | 14.5 | 0.00 | 0.00 | 0.00 | 17 | 1005.8 |
| 20260510020121 | 26 | 225 | 9.7 | 11.3 | 0.00 | 0.00 | 0.00 | 16 | 1005.6 |
| 20260510015618 | 26 | 242 | 11.3 | 16.1 | 0.00 | 0.00 | 0.00 | 16 | 1005.6 |
| 20260510015114 | 27 | 234 | 17.7 | 29.0 | 0.00 | 0.00 | 0.00 | 15 | 1005.7 |
| 20260510014610 | 26 | 244 | 17.7 | 19.3 | 0.00 | 0.00 | 0.00 | 17 | 1005.6 |
| 20260510014108 | 27 | 245 | 17.7 | 20.9 | 0.00 | 0.00 | 0.00 | 15 | 1005.4 |
| 20260510013601 | 27 | 254 | 16.1 | 20.9 | 0.00 | 0.00 | 0.00 | 15 | 1005.7 |
| 20260510013057 | 28 | 260 | 24.1 | 30.6 | 0.00 | 0.00 | 0.00 | 14 | 1005.2 |
| 20260510012551 | 29 | 280 | 32.2 | 43.5 | 0.00 | 0.00 | 0.00 | 13 | 1005.2 |
| 20260510012048 | 28 | 273 | 24.1 | 33.8 | 0.00 | 0.00 | 0.00 | 13 | 1005.3 |
| 20260510011548 | 28 | 243 | 46.7 | 53.1 | 0.00 | 0.00 | 0.00 | 14 | 1005.4 |
| 20260510011044 | 28 | 245 | 41.8 | 54.7 | 0.00 | 0.00 | 0.00 | 13 | 1005.3 |
| 20260510010541 | 27 | 244 | 24.1 | 35.4 | 0.00 | 0.00 | 0.00 | 15 | 1005.5 |
| 20260510010038 | 27 | 231 | 8.0 | 11.3 | 0.00 | 0.00 | 0.00 | 16 | 1005.5 |
| 20260510005533 | 27 | 229 | 14.5 | 16.1 | 0.00 | 0.00 | 0.00 | 16 | 1005.7 |
| 20260510005031 | 28 | 233 | 16.1 | 20.9 | 0.00 | 0.00 | 0.00 | 15 | 1005.5 |
| 20260510004529 | 27 | 230 | 14.5 | 17.7 | 0.00 | 0.00 | 0.00 | 16 | 1005.6 |
| 20260510004026 | 28 | 239 | 17.7 | 20.9 | 0.00 | 0.00 | 0.00 | 15 | 1005.7 |
| 20260510003517 | 28 | 256 | 12.9 | 14.5 | 0.00 | 0.00 | 0.00 | 15 | 1005.6 |
| 20260510003013 | 28 | 267 | 14.5 | 24.1 | 0.00 | 0.00 | 0.00 | 14 | 1005.4 |
| 20260510002508 | 29 | 280 | 6.4 | 27.4 | 0.00 | 0.00 | 0.00 | 14 | 1005.4 |
| 20260510002006 | 30 | 271 | 24.1 | 46.7 | 0.00 | 0.00 | 0.00 | 14 | 1005.8 |
| 20260510001503 | 30 | 227 | 17.7 | 30.6 | 0.00 | 0.00 | 0.00 | 15 | 1005.7 |
| 20260510001001 | 30 | 230 | 37.0 | 37.0 | 0.00 | 0.00 | 0.00 | 15 | 1005.7 |
| 20260510000456 | 29 | 240 | 35.4 | 49.9 | 0.00 | 0.00 | 0.00 | 15 | 1005.6 |
| 20260509235953 | 29 | 233 | 43.5 | 51.5 | 0.00 | 0.00 | 0.00 | 15 | 1005.5 |
| 20260509235450 | 30 | 189 | 16.1 | 29.0 | 0.00 | 0.00 | 0.00 | 14 | 1005.2 |
| 20260509234946 | 30 | 233 | 12.9 | 17.7 | 0.00 | 0.00 | 0.00 | 14 | 1005.6 |
| 20260509234443 | 30 | 206 | 4.8 | 14.5 | 0.00 | 0.00 | 0.00 | 14 | 1005.4 |
| 20260509233941 | 30 | 225 | 20.9 | 35.4 | 0.00 | 0.00 | 0.00 | 14 | 1005.4 |
| 20260509233438 | 30 | 291 | 46.7 | 51.5 | 0.00 | 0.00 | 0.00 | 13 | 1005.5 |
| 20260509232934 | 30 | 220 | 29.0 | 33.8 | 0.00 | 0.00 | 0.00 | 13 | 1005.3 |
| 20260509232432 | 30 | 247 | 19.3 | 29.0 | 0.00 | 0.00 | 0.00 | 14 | 1005.4 |
| 20260509231927 | 30 | 245 | 19.3 | 22.5 | 0.00 | 0.00 | 0.00 | 14 | 1005.3 |
| 20260509231424 | 30 | 231 | 19.3 | 35.4 | 0.00 | 0.00 | 0.00 | 14 | 1005.4 |
| 20260509230923 | 30 | 219 | 30.6 | 48.3 | 0.00 | 0.00 | 0.00 | 13 | 1005.6 |
| 20260509230419 | 32 | 229 | 43.5 | 46.7 | 0.00 | 0.00 | 0.00 | 13 | 1005.3 |
| 20260509225915 | 32 | 249 | 27.4 | 35.4 | 0.00 | 0.00 | 0.00 | 12 | 1005.4 |
| 20260509225412 | 31 | 252 | 29.0 | 48.3 | 0.00 | 0.00 | 0.00 | 12 | 1005.4 |
| 20260509224908 | 31 | 254 | 27.4 | 35.4 | 0.00 | 0.00 | 0.00 | 13 | 1005.6 |
| 20260509224403 | 31 | 232 | 24.1 | 32.2 | 0.00 | 0.00 | 0.00 | 12 | 1005.6 |
| 20260509223900 | 31 | 231 | 20.9 | 29.0 | 0.00 | 0.00 | 0.00 | 12 | 1005.4 |
| 20260509223351 | 30 | 286 | 17.7 | 25.7 | 0.00 | 0.00 | 0.00 | 12 | 1005.5 |
| 20260509222848 | 30 | 316 | 14.5 | 29.0 | 0.00 | 0.00 | 0.00 | 13 | 1005.3 |
| 20260509222343 | 30 | 304 | 12.9 | 32.2 | 0.00 | 0.00 | 0.00 | 12 | 1005.7 |
| 20260509221838 | 30 | 302 | 17.7 | 35.4 | 0.00 | 0.00 | 0.00 | 12 | 1005.8 |
| 20260509221336 | 30 | 358 | 9.7 | 14.5 | 0.00 | 0.00 | 0.00 | 12 | 1005.7 |
| 20260509220831 | 30 | 306 | 9.7 | 17.7 | 0.00 | 0.00 | 0.00 | 12 | 1005.8 |
| 20260509220328 | 30 | 337 | 12.9 | 17.7 | 0.00 | 0.00 | 0.00 | 12 | 1005.6 |
| 20260509215823 | 30 | 279 | 19.3 | 27.4 | 0.00 | 0.00 | 0.00 | 12 | 1005.8 |
| 20260509215320 | 30 | 319 | 24.1 | 30.6 | 0.00 | 0.00 | 0.00 | 12 | 1005.8 |
| 20260509214817 | 30 | 319 | 16.1 | 22.5 | 0.00 | 0.00 | 0.00 | 12 | 1006.1 |
| 20260509214314 | 31 | 317 | 20.9 | 32.2 | 0.00 | 0.00 | 0.00 | 11 | 1006.2 |
| 20260509213811 | 31 | 273 | 17.7 | 32.2 | 0.00 | 0.00 | 0.00 | 12 | 1006.3 |
| 20260509213307 | 30 | 277 | 27.4 | 33.8 | 0.00 | 0.00 | 0.00 | 12 | 1006.2 |
| 20260509212804 | 31 | 259 | 27.4 | 29.0 | 0.00 | 0.00 | 0.00 | 12 | 1006.3 |
| 20260509212305 | 32 | 311 | 35.4 | 40.2 | 0.00 | 0.00 | 0.00 | 11 | 1006.6 |
| 20260509211757 | 31 | 293 | 27.4 | 37.0 | 0.00 | 0.00 | 0.00 | 11 | 1006.5 |
| 20260509211253 | 31 | 286 | 37.0 | 53.1 | 0.00 | 0.00 | 0.00 | 11 | 1006.5 |
| 20260509210750 | 32 | 288 | 41.8 | 48.3 | 0.00 | 0.00 | 0.00 | 11 | 1006.6 |
| 20260509210248 | 30 | 256 | 29.0 | 41.8 | 0.00 | 0.00 | 0.00 | 12 | 1007.0 |
| 20260509205747 | 31 | 283 | 20.9 | 33.8 | 0.00 | 0.00 | 0.00 | 11 | 1007.2 |
| 20260509205242 | 30 | 319 | 24.1 | 29.0 | 0.00 | 0.00 | 0.00 | 12 | 1007.0 |
| 20260509204738 | 31 | 239 | 37.0 | 41.8 | 0.00 | 0.00 | 0.00 | 11 | 1007.1 |
| 20260509204235 | 31 | 272 | 30.6 | 37.0 | 0.00 | 0.00 | 0.00 | 12 | 1007.1 |
| 20260509203731 | 30 | 281 | 17.7 | 38.6 | 0.00 | 0.00 | 0.00 | 12 | 1007.3 |
| 20260509203229 | 30 | 274 | 8.0 | 27.4 | 0.00 | 0.00 | 0.00 | 13 | 1007.2 |
| 20260509202725 | 31 | 306 | 24.1 | 32.2 | 0.00 | 0.00 | 0.00 | 12 | 1007.4 |
| 20260509202221 | 31 | 321 | 29.0 | 41.8 | 0.00 | 0.00 | 0.00 | 12 | 1007.4 |
| 20260509201715 | 31 | 312 | 25.7 | 37.0 | 0.00 | 0.00 | 0.00 | 12 | 1007.7 |
| 20260509201212 | 30 | 279 | 30.6 | 45.1 | 0.00 | 0.00 | 0.00 | 12 | 1007.7 |
| 20260509200709 | 30 | 278 | 24.1 | 48.3 | 0.00 | 0.00 | 0.00 | 12 | 1007.8 |
| 20260509200203 | 30 | 310 | 24.1 | 27.4 | 0.00 | 0.00 | 0.00 | 12 | 1007.9 |
| 20260509195659 | 30 | 279 | 17.7 | 40.2 | 0.00 | 0.00 | 0.00 | 12 | 1008.0 |
| 20260509195155 | 30 | 292 | 29.0 | 46.7 | 0.00 | 0.00 | 0.00 | 12 | 1007.9 |
| 20260509194649 | 29 | 304 | 19.3 | 22.5 | 0.00 | 0.00 | 0.00 | 14 | 1007.9 |
| 20260509194146 | 30 | 281 | 24.1 | 32.2 | 0.00 | 0.00 | 0.00 | 14 | 1008.1 |
| 20260509193642 | 30 | 253 | 33.8 | 45.1 | 0.00 | 0.00 | 0.00 | 14 | 1008.1 |
| 20260509193138 | 30 | 255 | 25.7 | 41.8 | 0.00 | 0.00 | 0.00 | 13 | 1008.1 |
| 20260509192635 | 30 | 277 | 19.3 | 29.0 | 0.00 | 0.00 | 0.00 | 14 | 1008.1 |
| 20260509192129 | 30 | 249 | 16.1 | 35.4 | 0.00 | 0.00 | 0.00 | 13 | 1008.2 |
| 20260509191624 | 30 | 285 | 32.2 | 40.2 | 0.00 | 0.00 | 0.00 | 12 | 1008.2 |
| 20260509191121 | 30 | 259 | 40.2 | 40.2 | 0.00 | 0.00 | 0.00 | 15 | 1008.2 |
| 20260509190617 | 30 | 257 | 17.7 | 30.6 | 0.00 | 0.00 | 0.00 | 15 | 1008.6 |
| 20260509190115 | 30 | 266 | 38.6 | 41.8 | 0.00 | 0.00 | 0.00 | 15 | 1008.6 |
| 20260509185612 | 30 | 268 | 19.3 | 27.4 | 0.00 | 0.00 | 0.00 | 16 | 1008.6 |
| 20260509185108 | 30 | 297 | 16.1 | 41.8 | 0.00 | 0.00 | 0.00 | 15 | 1008.7 |
| 20260509184607 | 29 | 267 | 22.5 | 32.2 | 0.00 | 0.00 | 0.00 | 16 | 1008.4 |
| 20260509184103 | 29 | 260 | 32.2 | 40.2 | 0.00 | 0.00 | 0.00 | 15 | 1008.8 |
| 20260509183558 | 29 | 252 | 33.8 | 43.5 | 0.00 | 0.00 | 0.00 | 16 | 1008.8 |
| 20260509183054 | 28 | 262 | 33.8 | 38.6 | 0.00 | 0.00 | 0.00 | 16 | 1009.2 |
| 20260509182551 | 28 | 267 | 29.0 | 45.1 | 0.00 | 0.00 | 0.00 | 16 | 1009.0 |
| 20260509182048 | 28 | 279 | 27.4 | 30.6 | 0.00 | 0.00 | 0.00 | 17 | 1009.4 |
| 20260509181546 | 28 | 240 | 32.2 | 38.6 | 0.00 | 0.00 | 0.00 | 17 | 1009.2 |
| 20260509181043 | 28 | 269 | 22.5 | 37.0 | 0.00 | 0.00 | 0.00 | 17 | 1009.2 |
| 20260509180538 | 28 | 248 | 32.2 | 38.6 | 0.00 | 0.00 | 0.00 | 17 | 1009.2 |
| 20260509180036 | 28 | 264 | 24.1 | 40.2 | 0.00 | 0.00 | 0.00 | 17 | 1009.5 |
| 20260509175531 | 28 | 252 | 17.7 | 35.4 | 0.00 | 0.00 | 0.00 | 18 | 1009.4 |
| 20260509175029 | 28 | 255 | 25.7 | 35.4 | 0.00 | 0.00 | 0.00 | 19 | 1009.0 |
| 20260509174526 | 28 | 247 | 22.5 | 41.8 | 0.00 | 0.00 | 0.00 | 19 | 1009.6 |
| 20260509174020 | 27 | 253 | 33.8 | 38.6 | 0.00 | 0.00 | 0.00 | 21 | 1009.5 |
| 20260509173515 | 27 | 255 | 22.5 | 27.4 | 0.00 | 0.00 | 0.00 | 23 | 1009.9 |
| 20260509173011 | 27 | 254 | 22.5 | 33.8 | 0.00 | 0.00 | 0.00 | 22 | 1009.9 |
| 20260509172508 | 26 | 247 | 25.7 | 35.4 | 0.00 | 0.00 | 0.00 | 23 | 1009.8 |
| 20260509172004 | 26 | 249 | 29.0 | 30.6 | 0.00 | 0.00 | 0.00 | 24 | 1010.0 |
| 20260509171500 | 26 | 232 | 20.9 | 35.4 | 0.00 | 0.00 | 0.00 | 24 | 1010.3 |
| 20260509170957 | 26 | 244 | 37.0 | 38.6 | 0.00 | 0.00 | 0.00 | 23 | 1010.3 |
| 20260509170452 | 26 | 245 | 27.4 | 38.6 | 0.00 | 0.00 | 0.00 | 23 | 1010.1 |
| 20260509165948 | 26 | 249 | 27.4 | 48.3 | 0.00 | 0.00 | 0.00 | 24 | 1010.3 |
| 20260509165447 | 25 | 238 | 32.2 | 40.2 | 0.00 | 0.00 | 0.00 | 25 | 1010.3 |
| 20260509164943 | 24 | 228 | 19.3 | 38.6 | 0.00 | 0.00 | 0.00 | 27 | 1010.3 |
| 20260509164439 | 25 | 237 | 30.6 | 41.8 | 0.00 | 0.00 | 0.00 | 26 | 1010.8 |
| 20260509163935 | 24 | 243 | 35.4 | 38.6 | 0.00 | 0.00 | 0.00 | 26 | 1010.6 |
| 20260509163433 | 24 | 250 | 32.2 | 41.8 | 0.00 | 0.00 | 0.00 | 27 | 1010.5 |
| 20260509162932 | 24 | 249 | 27.4 | 43.5 | 0.00 | 0.00 | 0.00 | 27 | 1010.5 |
| 20260509162431 | 24 | 242 | 24.1 | 41.8 | 0.00 | 0.00 | 0.00 | 26 | 1010.5 |
| 20260509161926 | 24 | 248 | 30.6 | 45.1 | 0.00 | 0.00 | 0.00 | 26 | 1010.5 |
| 20260509161423 | 23 | 244 | 32.2 | 35.4 | 0.00 | 0.00 | 0.00 | 27 | 1010.3 |
| 20260509160918 | 24 | 244 | 33.8 | 35.4 | 0.00 | 0.00 | 0.00 | 27 | 1010.3 |
| 20260509160414 | 23 | 217 | 27.4 | 38.6 | 0.00 | 0.00 | 0.00 | 28 | 1010.0 |
| 20260509155910 | 23 | 221 | 19.3 | 33.8 | 0.00 | 0.00 | 0.00 | 28 | 1010.0 |
| 20260509155407 | 23 | 200 | 19.3 | 32.2 | 0.00 | 0.00 | 0.00 | 28 | 1010.1 |
| 20260509154903 | 23 | 210 | 24.1 | 27.4 | 0.00 | 0.00 | 0.00 | 29 | 1010.1 |
| 20260509154359 | 22 | 208 | 24.1 | 40.2 | 0.00 | 0.00 | 0.00 | 29 | 1010.0 |
| 20260509153856 | 22 | 203 | 25.7 | 32.2 | 0.00 | 0.00 | 0.00 | 31 | 1010.1 |
| 20260509153354 | 22 | 184 | 22.5 | 33.8 | 0.00 | 0.00 | 0.00 | 31 | 1010.3 |
| 20260509152850 | 22 | 194 | 22.5 | 35.4 | 0.00 | 0.00 | 0.00 | 32 | 1010.5 |
| 20260509152346 | 22 | 193 | 32.2 | 33.8 | 0.00 | 0.00 | 0.00 | 32 | 1010.4 |
| 20260509151844 | 21 | 189 | 24.1 | 32.2 | 0.00 | 0.00 | 0.00 | 33 | 1010.5 |
| 20260509151339 | 21 | 165 | 29.0 | 32.2 | 0.00 | 0.00 | 0.00 | 34 | 1010.5 |
| 20260509150838 | 21 | 189 | 24.1 | 35.4 | 0.00 | 0.00 | 0.00 | 34 | 1010.4 |
| 20260509150336 | 20 | 180 | 20.9 | 30.6 | 0.00 | 0.00 | 0.00 | 36 | 1010.5 |
| 20260509145833 | 20 | 185 | 20.9 | 35.4 | 0.00 | 0.00 | 0.00 | 36 | 1010.7 |
| 20260509145327 | 20 | 152 | 19.3 | 29.0 | 0.00 | 0.00 | 0.00 | 38 | 1010.9 |
| 20260509144824 | 19 | 151 | 17.7 | 32.2 | 0.00 | 0.00 | 0.00 | 39 | 1010.8 |
| 20260509144321 | 20 | 144 | 20.9 | 30.6 | 0.00 | 0.00 | 0.00 | 39 | 1010.8 |